[[{"header":{"parameterUnit":"m.s-1","parameterCategory":1,"la1":30.2991,"la2":30.254,"lo1":-89.0895,"lo2":-89.0444,"dy":0.0017,"dx":0.0017,"nx":28,"ny":28,"refTime":"2024-10-02T03:00:00:Z","depth":0,"parameterNumber":2,"parameterNumberName":"U-component_of_WINDS"},"data":[0,0,0,0,0,0,0,0,0,0,0,0,0,0,0,0,0,0,0,0,0,0,0,0,0,0,0,0,0,0,0,0,0,0,0,0,0,0,0,0,0,0,0,0,0,0,0,0,0,0,0,0,0,0,0,0,0,0,-4.6398,-4.6398,0,-4.6433,-4.6434,-4.6434,-4.6294,-4.629,-4.6286,-4.6282,-4.6319,-4.6324,-4.6329,0,0,0,0,0,0,0,0,0,0,0,0,0,-4.6211,-4.6215,-4.6398,-4.6398,-4.6398,-4.6433,-4.6434,-4.6434,-4.6295,-4.629,-4.6285,-4.628,-4.6318,-4.6324,-4.6329,0,0,0,0,0,0,0,0,0,0,0,0,0,-4.6274,-4.6216,-4.6397,-4.6333,-4.6328,-4.6433,-4.6434,-4.6434,-4.6296,-4.629,-4.6283,-4.6278,-4.6316,-4.6323,-4.633,-4.65,0,0,-4.6352,-4.6356,0,0,0,0,0,0,0,0,-4.6271,-4.6281,-4.6342,-4.6338,-4.6332,-4.6353,-4.6381,-4.6456,-4.6297,-4.6308,-4.6282,-4.6274,-4.6336,-4.6341,-4.6361,-4.6501,-4.6503,-4.6353,-4.6358,-4.6361,-4.6363,0,0,0,0,0,0,0,-4.6266,-4.6279,-4.6412,-4.6343,-4.6337,-4.6303,-4.6305,-4.6395,-4.6356,-4.6307,-4.6296,-4.6303,-4.6332,-4.6355,-4.6361,-4.6504,-4.6353,-4.6359,-4.6364,-4.6367,-4.6787,-4.6793,0,0,0,0,0,0,-4.627,-4.6276,-4.641,-4.6413,-4.6285,-4.6312,-4.6314,-4.6352,-4.6355,-4.6349,-4.6308,-4.6296,-4.6345,-4.6353,-4.6362,-4.6561,-4.6361,-4.6367,-4.6372,-4.678,-4.6788,-4.6796,0,0,0,0,0,0,-4.6267,-4.6284,-4.6409,-4.6342,-4.6355,-4.6321,-4.6366,-4.6356,-4.6379,-4.6356,-4.6348,-4.6338,-4.6341,-4.6352,-4.6467,-4.6561,-4.6371,-4.6377,-4.6772,-4.6783,-4.6792,-4.6962,0,0,0,0,0,0,-4.6262,-4.6283,-4.6346,-4.6344,-4.6359,-4.6513,-4.6371,-4.6362,-4.6392,-4.6377,-4.6382,-4.6377,-4.6337,-4.6457,-4.6474,-4.6567,-4.6383,-4.6764,-4.6777,-4.6789,-4.6948,-4.6976,-4.7001,0,0,0,0,0,-4.6256,-4.6392,-4.635,-4.6367,-4.6437,-4.6519,-4.6527,-4.6477,-4.64,-4.6464,-4.6449,-4.6377,-4.6548,-4.647,-4.6488,-4.6585,-4.6757,-4.6773,-4.6788,-4.6936,-4.6971,-4.7001,0,0,0,0,0,0,-4.6406,-4.6391,-4.6344,-4.6484,-4.6504,-4.6495,-4.6573,-4.6516,-4.6558,-4.6542,-4.6479,-4.6481,-4.6608,-4.6608,-4.6521,-4.675,-4.664,-4.6659,-4.6745,-4.6779,-4.6805,-4.6802,-4.6389,0,0,0,0,0,-4.6456,-4.6523,-4.6506,-4.6631,-4.6643,-4.6608,-4.6641,-4.6601,-4.6619,-4.6627,-4.662,-4.6641,-4.6699,-4.6739,-4.6791,-4.6948,-4.6947,-4.7023,-4.705,-4.7072,-4.709,-4.7174,-4.7208,-4.6846,-4.6846,-4.6846,0,0,-4.6558,-4.6558,-4.6604,-4.6661,-4.6672,-4.6743,-4.6615,-4.6695,-4.6748,-4.6639,-4.6747,-4.6744,-4.6763,-4.69,-4.696,-4.6904,-4.719,-4.7092,-4.711,-4.7115,-4.7193,-4.7228,-4.7258,-4.6856,-4.6854,-4.6853,0,0,-4.6782,-4.6788,-4.6894,-4.6908,-4.6926,-4.6902,-4.6928,-4.6928,-4.6922,-4.703,-4.695,-4.7013,-4.7114,-4.7131,-4.7154,-4.7388,-4.7324,-4.7407,-4.7547,-4.7629,-4.7658,-4.7683,-4.7767,-4.7798,-4.7425,-4.7425,-4.7425,0,-4.6907,-4.7011,-4.6955,-4.7042,-4.707,-4.6975,-4.7083,-4.7099,-4.7134,-4.7156,-4.7093,-4.722,-4.7226,-4.7366,-4.7424,-4.7445,-4.7473,-4.7405,-4.7658,-4.7683,-4.7705,-4.7785,-4.7817,-4.7435,-4.7434,-4.7433,-4.7432,0,-4.7164,-4.7238,-4.7321,-4.7358,-4.7395,-4.7492,-4.7452,-4.7497,-4.7456,-4.7439,-4.7551,-4.7556,-4.7608,-4.7639,-4.7598,-4.7775,-4.7739,-4.7669,-4.7556,-4.7751,-4.7825,-4.7855,-4.745,-4.7446,-4.7443,-4.744,0,0,-4.7481,-4.7488,-4.7519,-4.7535,-4.755,-4.7606,-4.77,-4.7751,-4.7792,-4.782,-4.7897,-4.7987,-4.7922,-4.7948,-4.7909,-4.7982,-4.8169,-4.7902,-4.7901,-4.7952,-4.8365,-4.8418,-4.8454,-4.8127,-4.8132,-4.8137,-4.8364,0,-4.77,-4.7859,-4.7814,-4.7974,-4.8042,-4.7955,-4.8036,-4.8055,-4.8043,-4.81,-4.8086,-4.8151,-4.806,-4.8075,-4.8143,-4.8132,-4.8251,-4.8115,-4.8199,-4.8203,-4.8196,-4.8493,-4.8548,-4.8762,-4.8392,-4.8397,-4.84,0,-4.7976,-4.8017,-4.8184,-4.8189,-4.8216,-4.829,-4.8335,-4.839,-4.8411,-4.8397,-4.8427,-4.8374,-4.8468,-4.8356,-4.8484,-4.8393,-4.8425,-4.8425,-4.8432,-4.8437,-4.8313,-4.8506,-4.8829,-4.8861,-4.8445,-4.8442,-4.8438,0,-4.8191,-4.8287,-4.8399,-4.8416,-4.8425,-4.848,-4.8486,-4.85,-4.8535,-4.8575,-4.8597,-4.8648,-4.8676,-4.8717,-4.868,-4.8601,-4.8815,-4.8699,-4.8806,-4.8808,-4.8854,-4.8852,-4.9187,-4.8876,-4.8876,-4.8875,-4.8875,0,-4.8441,-4.8546,-4.8496,-4.8565,-4.8682,-4.863,-4.8747,-4.8744,-4.8758,-4.8826,-4.8754,-4.882,-4.8767,-4.8828,-4.88,-4.8912,-4.8925,-4.8917,-4.8908,-4.8923,-4.8924,-4.8942,-4.8927,-4.8884,-4.8882,-4.888,-4.8879,0,-4.8699,-4.867,-4.8787,-4.8787,-4.879,-4.8876,-4.8876,-4.8941,-4.8924,-4.9012,-4.9029,-4.9004,-4.9073,-4.904,-4.9112,-4.9093,-4.9237,-4.9209,-4.923,-4.9223,-4.9332,-4.9322,-4.969,-4.9736,-4.9397,-4.94,-4.9403,0,-4.8859,-4.8939,-4.8948,-4.8989,-4.9001,-4.9067,-4.9102,-4.9055,-4.9096,-4.9127,-4.9189,-4.9252,-4.9299,-4.9414,-4.9402,-4.9458,-4.943,-4.9555,-4.9437,-4.9451,-4.9432,-4.9428,-4.9436,-4.9578,-4.9582,-4.9585,-4.9588,0,-4.9148,-4.913,-4.9184,-4.9235,-4.9279,-4.9317,-4.9348,-4.9385,-4.934,-4.9389,-4.9459,-4.9496,-4.9571,-4.9635,-4.9684,-4.9691,-4.9633,-4.9625,-4.9653,-4.9669,-4.9678,-4.9675,-4.9294,-4.9617,-4.9614,-4.9612,-4.961,-4.9609,-4.9362,-4.9429,-4.9447,-4.9511,-4.953,-4.9561,-4.9623,-4.9615,-4.9672,-4.9729,-4.9698,-4.9781,-4.9802,-4.9861,-4.9878,-4.9942,-4.9892,-4.9932,-4.9942,-4.9953,-4.9968,-4.9669,-4.9951,-4.995,-4.9949,-4.9948,-4.9948,0,-4.9647,-4.9655,-4.9714,-4.976,-4.9811,-4.9753,-4.9785,-4.9831,-4.9904,-4.9929,-4.9978,-5.006,-5.0122,-5.0117,-5.0175,-5.0228,-5.0203,-5.0244,-5.024,-5.0243,-5.0009,-4.9979,-5.0264,-5.0264,-5.0264,-5.0264,-5.0264,-5.0264,-4.9801,-4.9912,-4.9897,-5.0018,-5.0025,-5.0105,-5.0129,-5.0159,-5.0178,-5.0273,-5.0324,-5.0321,-5.0334,-5.0393,-5.0448,-5.0445,-5.047,-5.0522,-5.0509,-5.029,-5.0259,-5.0229,-5.0201,-5.0528,-5.0528,-5.0738,-5.074,-5.0741]},{"header":{"parameterUnit":"m.s-1","parameterCategory":1,"la1":30.2991,"la2":30.254,"lo1":-89.0895,"lo2":-89.0444,"dy":0.0017,"dx":0.0017,"nx":28,"ny":28,"refTime":"2024-10-02T03:00:00:Z","depth":0,"parameterNumber":3,"parameterNumberName":"V-component_of_WINDS"},"data":[0,0,0,0,0,0,0,0,0,0,0,0,0,0,0,0,0,0,0,0,0,0,0,0,0,0,0,0,0,0,0,0,0,0,0,0,0,0,0,0,0,0,0,0,0,0,0,0,0,0,0,0,0,0,0,0,0,0,0.8737,0.8737,0,0.8749,0.8749,0.8749,0.8778,0.8779,0.878,0.878,0.8788,0.8788,0.8787,0,0,0,0,0,0,0,0,0,0,0,0,0,0.8737,0.8736,0.8737,0.8737,0.8738,0.8749,0.8749,0.8749,0.8778,0.8779,0.878,0.878,0.8788,0.8788,0.8787,0,0,0,0,0,0,0,0,0,0,0,0,0,0.8741,0.8736,0.8737,0.8753,0.8755,0.8749,0.8749,0.8749,0.8778,0.8779,0.878,0.8781,0.8788,0.8788,0.8787,0.8765,0,0,0.8785,0.8785,0,0,0,0,0,0,0,0,0.8741,0.8741,0.8751,0.8752,0.8754,0.8763,0.8752,0.8755,0.8778,0.8769,0.878,0.8781,0.8779,0.8779,0.8779,0.8765,0.8766,0.8785,0.8785,0.8785,0.8785,0,0,0,0,0,0,0,0.8741,0.8741,0.8742,0.8751,0.8753,0.8759,0.8761,0.8753,0.8768,0.877,0.8772,0.8773,0.878,0.878,0.8779,0.8766,0.8785,0.8785,0.8785,0.8784,0.8736,0.8735,0,0,0,0,0,0,0.8739,0.8741,0.8741,0.8742,0.875,0.8758,0.876,0.8759,0.8769,0.8771,0.8773,0.8775,0.878,0.878,0.878,0.8755,0.8785,0.8784,0.8784,0.8737,0.8736,0.8734,0,0,0,0,0,0,0.8738,0.8738,0.8741,0.8742,0.8743,0.8758,0.8756,0.8759,0.8759,0.8771,0.8773,0.877,0.8781,0.8781,0.8769,0.8755,0.8784,0.8784,0.8738,0.8736,0.8735,0.8704,0,0,0,0,0,0,0.8738,0.8738,0.873,0.8742,0.8743,0.8731,0.8755,0.8759,0.8758,0.8761,0.8769,0.8771,0.8781,0.877,0.8769,0.8755,0.8783,0.8739,0.8737,0.8735,0.8707,0.8702,0.8698,0,0,0,0,0,0.8738,0.872,0.873,0.873,0.8733,0.873,0.873,0.8744,0.8757,0.8749,0.8757,0.877,0.8758,0.8768,0.8767,0.8753,0.874,0.8738,0.8736,0.8708,0.8703,0.8698,0,0,0,0,0,0,0.8704,0.8722,0.8733,0.8718,0.8722,0.8735,0.8725,0.8738,0.8737,0.874,0.8756,0.8758,0.8744,0.8748,0.8759,0.8733,0.8751,0.8749,0.8731,0.8726,0.8721,0.872,0.8783,0,0,0,0,0,0.8696,0.8693,0.8707,0.8693,0.8695,0.871,0.8708,0.8719,0.8724,0.8725,0.8732,0.8735,0.8732,0.8729,0.8727,0.8708,0.871,0.8698,0.8694,0.869,0.8687,0.8678,0.8673,0.8727,0.8727,0.8727,0,0,0.8677,0.8686,0.8682,0.8686,0.8691,0.8686,0.8711,0.8704,0.8701,0.8724,0.8714,0.8719,0.8724,0.8709,0.8702,0.8711,0.8673,0.8688,0.8685,0.8684,0.8675,0.867,0.8666,0.8726,0.8726,0.8726,0,0,0.864,0.8647,0.8636,0.8641,0.8648,0.8659,0.8656,0.8667,0.8672,0.8663,0.868,0.8676,0.867,0.8673,0.8673,0.864,0.8652,0.8639,0.8616,0.8607,0.8602,0.8598,0.8586,0.8581,0.8636,0.8636,0.8636,0,0.8614,0.8609,0.8628,0.8621,0.8622,0.8646,0.8634,0.8638,0.8643,0.8643,0.8654,0.8648,0.8653,0.8639,0.8631,0.8631,0.8628,0.8637,0.8602,0.8598,0.8595,0.8583,0.8578,0.8634,0.8635,0.8635,0.8635,0,0.8578,0.8574,0.8564,0.8572,0.8572,0.8563,0.8579,0.8577,0.8589,0.8598,0.8588,0.8595,0.8595,0.8593,0.8603,0.858,0.8586,0.8599,0.8617,0.8588,0.8577,0.8573,0.8632,0.8633,0.8633,0.8634,0,0,0.8517,0.8537,0.8533,0.8537,0.8549,0.8545,0.8538,0.8539,0.8537,0.8541,0.8534,0.853,0.8543,0.8544,0.8555,0.8547,0.852,0.8561,0.8562,0.8552,0.8495,0.8484,0.8479,0.8529,0.8528,0.8528,0.8494,0,0.8482,0.8471,0.8488,0.8472,0.8469,0.8493,0.8486,0.8492,0.8501,0.8498,0.8508,0.8504,0.8522,0.8523,0.8516,0.8525,0.8508,0.8527,0.8522,0.8521,0.8518,0.8473,0.8461,0.8429,0.849,0.849,0.8489,0,0.8438,0.8442,0.8427,0.8441,0.844,0.8434,0.8437,0.8436,0.8443,0.845,0.8452,0.8466,0.8459,0.8478,0.8468,0.8481,0.848,0.8484,0.8483,0.8481,0.8502,0.8469,0.8419,0.8414,0.8483,0.8483,0.8484,0,0.8394,0.8396,0.8387,0.839,0.8406,0.8402,0.8408,0.8417,0.8417,0.842,0.842,0.8422,0.8422,0.8423,0.8437,0.845,0.8425,0.8445,0.8429,0.8429,0.8421,0.8421,0.8369,0.8423,0.8423,0.8423,0.8423,0,0.8352,0.8341,0.8368,0.8362,0.8352,0.8372,0.836,0.8369,0.8377,0.8373,0.8393,0.8388,0.8408,0.8406,0.8417,0.8407,0.8407,0.8411,0.8414,0.8409,0.8408,0.8407,0.8409,0.8422,0.8422,0.8422,0.8423,0,0.83,0.8318,0.831,0.8327,0.8331,0.8322,0.8336,0.8332,0.8343,0.8338,0.8337,0.8355,0.8353,0.8368,0.8368,0.8376,0.836,0.8367,0.8358,0.8359,0.8342,0.8343,0.8286,0.828,0.8339,0.8339,0.8338,0,0.8271,0.8264,0.8281,0.8281,0.8287,0.8286,0.8287,0.8308,0.8308,0.8317,0.8311,0.8311,0.8313,0.8309,0.832,0.8321,0.8328,0.8308,0.8328,0.8323,0.8326,0.8326,0.8325,0.8303,0.8302,0.8301,0.8301,0,0.8218,0.8227,0.8229,0.8234,0.8236,0.8241,0.8246,0.8245,0.8267,0.8266,0.8266,0.8267,0.8269,0.8269,0.8272,0.8278,0.8292,0.8295,0.8291,0.8285,0.8279,0.8281,0.8345,0.8296,0.8296,0.8297,0.8297,0.8297,0.8175,0.8171,0.8182,0.8184,0.8191,0.8197,0.8193,0.8206,0.8206,0.821,0.8223,0.822,0.8229,0.8235,0.824,0.8238,0.8247,0.8242,0.824,0.8238,0.8234,0.8281,0.8238,0.8239,0.8239,0.8239,0.8239,0,0.8122,0.8132,0.8133,0.8142,0.8143,0.816,0.8168,0.8167,0.8166,0.8173,0.8175,0.8175,0.8176,0.8189,0.8191,0.8186,0.8193,0.8186,0.8185,0.8186,0.8226,0.8229,0.818,0.818,0.818,0.818,0.818,0.818,0.8094,0.8087,0.8098,0.8095,0.8104,0.8103,0.8106,0.8112,0.8118,0.8118,0.8119,0.8128,0.8138,0.8141,0.8143,0.8146,0.8145,0.8136,0.8141,0.8178,0.8184,0.8189,0.8191,0.8136,0.8136,0.8102,0.8101,0.8101]}]]